GW4589 Weather Reports


time (UTC)temp
F
wind
direction
speed
knots
gust
knots
rain 1hr
in
rain 24hr
in
rain mn
in
humidity
%
barometer
mb
20260505101926 34 212 0.9 0.9 0.05 0.24 0.24 96 1015.4
20260505101421 35 170 0.9 0.9 0.12 0.24 0.24 96 1015.4
20260505100917 35 198 0.0 0.9 0.12 0.23 0.23 96 1015.4
20260505100414 35 173 0.0 0.0 0.17 0.22 0.22 96 1015.2
20260505095909 35 193 0.0 0.9 0.12 0.21 0.21 96 1015.4
20260505095407 36 176 0.0 0.9 0.12 0.20 0.20 95 1015.2
20260505094903 36 197 0.9 1.7 0.07 0.19 0.19 95 1015.5
20260505094400 36 326 2.6 2.6 0.00 0.18 0.18 95 1015.5
20260505093855 37 202 0.9 1.7 0.00 0.18 0.18 95 1015.6
20260505093353 37 195 0.9 0.9 0.05 0.18 0.18 95 1015.5
20260505092850 37 296 1.7 1.7 0.05 0.18 0.18 95 1015.2
20260505092348 37 8 3.5 5.2 0.00 0.17 0.17 95 1015.4
20260505091845 38 5 2.6 2.6 0.07 0.17 0.17 95 1015.5
20260505091343 37 161 0.9 0.9 0.07 0.17 0.17 95 1015.4
20260505090841 37 206 1.7 3.5 0.00 0.16 0.16 94 1015.4
20260505090339 38 254 2.6 3.5 0.07 0.16 0.16 94 1015.4
20260505085836 38 9 1.7 2.6 0.12 0.16 0.16 94 1015.5
20260505085334 39 132 0.9 1.7 0.05 0.15 0.15 94 1015.4
20260505084832 39 346 2.6 3.5 0.07 0.14 0.14 95 1015.1
20260505084330 40 287 1.7 2.6 0.12 0.14 0.14 95 1014.9
20260505083826 40 255 1.7 1.7 0.12 0.13 0.13 95 1015.0
20260505083324 40 157 0.0 0.0 0.12 0.12 0.12 94 1014.9
20260505082820 40 188 0.0 0.9 0.05 0.11 0.11 94 1014.8
20260505082317 41 172 1.7 1.7 0.07 0.10 0.10 94 1014.8
20260505081813 41 12 1.7 1.7 0.07 0.10 0.10 94 1014.7
20260505081310 41 180 0.9 0.9 0.00 0.09 0.09 94 1014.8
20260505080807 41 233 0.9 0.9 0.05 0.09 0.09 94 1014.9
20260505080303 42 214 0.0 0.9 0.05 0.09 0.09 94 1014.7
20260505075758 42 263 0.9 1.7 0.00 0.08 0.08 94 1014.7
20260505075255 42 180 0.9 1.7 0.00 0.08 0.08 94 1014.5
20260505074752 42 165 0.0 0.0 0.00 0.08 0.08 94 1014.9
20260505074249 42 201 0.0 0.0 0.00 0.08 0.08 94 1014.8
20260505073747 42 184 0.0 0.0 0.07 0.08 0.08 94 1014.9
20260505073245 42 180 0.0 0.0 0.07 0.08 0.08 93 1014.9
20260505072741 42 262 0.9 0.9 0.12 0.07 0.07 93 1015.0
20260505072238 42 186 0.0 0.0 0.24 0.07 0.07 93 1014.9
20260505071733 42 275 0.0 0.0 0.12 0.05 0.05 92 1015.0
20260505071230 42 200 0.0 0.0 0.14 0.04 0.04 91 1015.0
20260505070727 43 324 0.0 0.0 0.07 0.03 0.03 90 1014.9
20260505070224 43 324 0.9 0.9 0.00 0.02 0.02 90 1014.8
20260505065720 43 199 0.0 0.0 0.05 0.02 0.02 89 1015.0
20260505065217 43 28 1.7 1.7 0.05 0.02 0.02 88 1014.8
20260505064714 44 223 0.9 2.6 0.00 0.01 0.01 87 1014.8
20260505064212 44 344 2.6 3.5 0.07 0.01 0.01 86 1014.5
20260505063709 44 237 1.7 1.7 0.07 0.01 0.01 83 1014.7
20260505063205 45 190 0.9 1.7 0.00 0.00 0.00 82 1014.7
20260505062701 45 72 1.7 2.6 0.00 0.00 0.00 80 1014.8
20260505062159 45 190 1.7 1.7 0.00 0.00 0.00 80 1014.8
20260505061656 45 208 0.9 1.7 0.00 0.00 0.00 80 1014.5
20260505061154 46 249 0.9 1.7 0.00 0.00 0.00 81 1014.5
20260505060651 46 231 1.7 1.7 0.00 0.00 0.00 81 1014.7
20260505060148 46 176 0.9 0.9 0.00 0.00 0.00 82 1014.4
20260505055643 46 185 0.9 0.9 0.00 0.04 0.04 81 1014.4
20260505055140 47 229 2.6 5.2 0.00 0.04 0.04 79 1014.3
20260505054638 48 319 3.5 5.2 0.00 0.04 0.04 77 1014.1
20260505054135 48 122 0.9 0.9 0.00 0.04 0.04 76 1014.0
20260505053633 49 301 2.6 2.6 0.00 0.04 0.04 80 1013.6
20260505053129 50 179 0.0 0.9 0.00 0.04 0.04 92 1013.3
20260505052626 50 185 0.0 0.0 0.00 0.04 0.04 92 1013.4
20260505052124 50 196 0.0 0.0 0.00 0.04 0.04 92 1013.0
20260505051621 50 184 0.0 0.0 0.00 0.04 0.04 92 1013.2
20260505051118 49 179 0.0 0.0 0.00 0.04 0.04 92 1013.0
20260505050616 49 179 0.0 0.0 0.00 0.04 0.04 91 1013.0
20260505050114 49 179 0.0 0.0 0.00 0.04 0.04 91 1012.9
20260505041544 49 182 0.0 0.0 0.00 0.04 0.04 92 1012.8
20260505041041 49 181 0.0 0.0 0.00 0.04 0.04 92 1012.8
20260505040538 48 172 0.0 0.0 0.00 0.04 0.04 92 1012.7
20260505040036 48 170 0.0 0.0 0.00 0.04 0.04 93 1012.7
20260505035531 48 170 0.0 0.0 0.00 0.04 0.04 93 1012.6
20260505035028 48 170 0.0 0.0 0.00 0.04 0.04 93 1012.7
20260505034525 48 170 0.0 0.0 0.00 0.04 0.04 93 1012.6
20260505034022 48 170 0.0 0.0 0.00 0.04 0.04 93 1012.7
20260505033519 48 170 0.0 0.0 0.00 0.04 0.04 92 1012.5
20260505033017 48 170 0.0 0.0 0.00 0.04 0.04 92 1012.6
20260505032514 48 170 0.0 0.0 0.00 0.04 0.04 92 1012.7
20260505032010 49 170 0.0 0.0 0.00 0.04 0.04 92 1012.3
20260505031508 49 170 0.0 0.0 0.00 0.04 0.04 91 1012.3
20260505031004 49 170 0.0 0.0 0.00 0.04 0.04 91 1012.2
20260505030501 49 170 0.0 0.0 0.00 0.04 0.04 91 1012.2
20260505025956 49 170 0.0 0.0 0.00 0.04 0.04 90 1012.2
20260505025453 49 170 0.0 0.0 0.00 0.04 0.04 90 1012.1
20260505024952 50 170 0.0 0.0 0.00 0.04 0.04 89 1012.0
20260505024449 50 170 0.0 0.0 0.00 0.04 0.04 89 1012.0
20260505023946 50 170 0.0 0.0 0.00 0.04 0.04 88 1012.0
20260505023443 50 170 0.0 0.0 0.00 0.04 0.04 87 1011.8
20260505022940 50 170 0.0 0.0 0.00 0.04 0.04 86 1011.5
20260505022438 50 170 0.0 0.0 0.00 0.04 0.04 87 1011.5
20260505021935 50 170 0.0 0.0 0.00 0.04 0.04 87 1011.4
20260505021431 50 170 0.0 0.0 0.00 0.04 0.04 86 1011.6
20260505020927 50 170 0.0 0.0 0.00 0.04 0.04 87 1011.5
20260505020422 50 170 0.0 0.0 0.00 0.04 0.04 85 1011.6
20260505015919 51 170 0.0 0.0 0.00 0.04 0.04 84 1011.8
20260505015417 51 170 0.0 0.0 0.00 0.04 0.04 84 1011.5
20260505014914 51 170 0.0 0.0 0.00 0.04 0.04 84 1011.8
20260505014411 51 170 0.0 0.0 0.00 0.04 0.04 84 1011.8
20260505013908 51 168 0.0 0.0 0.00 0.04 0.04 83 1011.5
20260505013404 52 168 0.0 0.0 0.00 0.04 0.04 83 1011.8
20260505012903 52 168 0.0 0.0 0.00 0.04 0.04 82 1011.8
20260505012400 52 167 0.0 0.0 0.00 0.04 0.04 80 1011.9
20260505011856 52 153 0.0 0.9 0.00 0.04 0.04 79 1011.8
20260505011353 52 130 1.7 1.7 0.00 0.04 0.04 80 1011.8
20260505010849 51 149 0.9 0.9 0.00 0.04 0.04 81 1011.8
20260505010345 51 169 0.0 0.0 0.00 0.04 0.04 80 1011.5
20260505005842 51 175 0.0 0.0 0.00 0.04 0.04 79 1011.6
20260505005338 51 180 0.0 0.0 0.00 0.04 0.04 78 1011.3
20260505004836 51 179 0.0 0.0 0.00 0.04 0.04 78 1011.5
20260505004332 51 179 0.0 0.9 0.00 0.04 0.04 79 1011.4
20260505003830 52 178 0.0 0.0 0.00 0.04 0.04 77 1011.4
20260505003327 51 184 3.5 3.5 0.05 0.04 0.04 75 1011.3
20260505002822 52 178 0.0 0.0 0.05 0.04 0.04 80 1011.2
20260505002320 53 174 0.0 0.0 0.07 0.03 0.03 76 1011.5
20260505001818 53 181 0.9 0.9 0.07 0.03 0.03 73 1011.8
20260505001315 54 177 0.9 0.9 0.05 0.02 0.02 70 1011.6
20260505000812 55 186 0.0 0.0 0.05 0.02 0.02 68 1011.3
20260505000310 56 177 0.0 0.0 0.00 0.01 0.01 64 1011.5
20260504235806 57 196 0.9 1.7 0.00 0.01 0.01 57 1011.3
20260504235304 58 179 0.0 0.0 0.00 0.01 0.01 57 1011.1
20260504234800 60 164 1.7 1.7 0.00 0.01 0.01 48 1010.8
20260504234258 61 234 2.6 3.5 0.00 0.01 0.01 45 1010.9
20260504233754 61 191 0.9 0.9 0.00 0.01 0.01 45 1010.4
20260504233249 61 197 0.0 0.9 0.00 0.01 0.01 45 1010.5
20260504232746 62 190 0.0 0.0 0.00 0.01 0.01 44 1010.4
20260504232243 62 191 0.0 0.0 0.00 0.01 0.01 44 1010.1
20260504231740 62 188 0.9 0.9 0.00 0.01 0.01 43 1010.2
20260504231237 62 187 0.0 0.9 0.00 0.01 0.01 42 1010.1
20260504230732 62 230 0.0 0.9 0.00 0.01 0.01 42 1009.9
20260504230231 62 205 0.0 0.0 0.00 0.01 0.01 43 1009.9
20260504225729 62 214 0.9 1.7 0.00 0.01 0.01 42 1009.8
20260504225225 63 237 0.9 0.9 0.00 0.01 0.01 42 1009.8
20260504224723 63 327 2.6 2.6 0.00 0.01 0.01 42 1009.8
20260504224220 63 245 1.7 1.7 0.00 0.01 0.01 42 1009.8
20260504223716 62 298 0.9 0.9 0.00 0.01 0.01 43 1009.8
20260504223211 62 194 0.0 0.0 0.00 0.01 0.01 43 1009.7
20260504222709 62 241 1.7 3.5 0.00 0.01 0.01 43 1009.7
20260504222205 62 212 0.9 0.9 0.00 0.01 0.01 43 1009.5
20260504221703 62 247 1.7 2.6 0.00 0.01 0.01 42 1009.8
20260504221200 63 336 1.7 2.6 0.00 0.01 0.01 42 1009.8
20260504220656 63 241 0.9 1.7 0.00 0.01 0.01 42 1009.8
20260504220154 63 324 3.5 5.2 0.00 0.01 0.01 42 1009.7
20260504215650 63 240 2.6 3.5 0.00 0.01 0.01 43 1010.0
20260504215147 62 291 2.6 3.5 0.00 0.01 0.01 43 1010.2
20260504214643 62 174 1.7 1.7 0.00 0.01 0.01 45 1010.4
20260504214139 62 227 2.6 3.5 0.00 0.01 0.01 44 1010.4
20260504213636 62 228 0.9 0.9 0.00 0.01 0.01 47 1010.5
20260504213133 62 207 0.9 0.9 0.00 0.01 0.01 49 1010.6
20260504212629 61 201 0.9 1.7 0.00 0.01 0.01 51 1010.4
20260504212126 60 304 0.9 0.9 0.00 0.01 0.01 53 1010.4
20260504211624 60 201 0.9 0.9 0.00 0.01 0.01 51 1010.4
20260504211120 59 100 0.9 0.9 0.00 0.01 0.01 52 1010.1
20260504210618 59 176 0.0 0.0 0.07 0.01 0.01 54 1010.4
20260504210114 59 53 1.7 2.6 0.07 0.01 0.01 51 1010.5
20260504205612 58 48 3.5 3.5 0.07 0.01 0.01 56 1011.1
20260504205109 60 274 2.6 3.5 0.00 0.00 0.00 49 1011.2
20260504204608 61 287 4.3 5.2 0.00 0.00 0.00 44 1011.2
20260504204106 61 230 1.7 2.6 0.00 0.00 0.00 46 1011.4
20260504203604 61 185 0.9 0.9 0.00 0.00 0.00 45 1011.4
20260504203101 60 180 0.0 0.0 0.00 0.00 0.00 46 1011.5
20260504202556 60 55 2.6 3.5 0.00 0.00 0.00 45 1011.2
20260504202054 61 58 1.7 1.7 0.00 0.00 0.00 46 1011.4
20260504201550 61 29 2.6 3.5 0.00 0.00 0.00 45 1011.4
20260504201048 61 42 4.3 6.1 0.00 0.00 0.00 44 1011.3
20260504200544 61 65 1.7 2.6 0.00 0.00 0.00 44 1011.2
20260504200042 61 26 7.0 8.7 0.00 0.00 0.00 45 1011.2
20260504195538 60 332 1.7 1.7 0.00 0.00 0.00 49 1011.2
20260504195034 60 288 2.6 5.2 0.00 0.00 0.00 46 1011.3
20260504194531 62 207 1.7 2.6 0.00 0.00 0.00 44 1011.1
20260504194026 63 204 0.0 0.9 0.00 0.00 0.00 40 1010.7
20260504193523 63 357 2.6 2.6 0.00 0.00 0.00 37 1010.9
20260504193022 65 286 1.7 5.2 0.00 0.00 0.00 35 1010.6
20260504192520 66 238 1.7 1.7 0.00 0.00 0.00 34 1010.2
20260504192018 66 168 0.0 0.0 0.00 0.00 0.00 34 1010.0
20260504191515 66 233 0.9 1.7 0.00 0.00 0.00 33 1010.1
20260504191011 66 177 0.0 0.0 0.00 0.00 0.00 33 1009.8
20260504190507 66 118 1.7 1.7 0.00 0.00 0.00 33 1009.5
20260504190003 66 178 0.0 0.9 0.00 0.00 0.00 31 1009.5
20260504185501 67 208 1.7 2.6 0.00 0.00 0.00 31 1009.5
20260504184957 69 260 4.3 7.0 0.00 0.00 0.00 28 1009.9
20260504184452 70 238 1.7 1.7 0.00 0.00 0.00 27 1009.2
20260504183948 70 174 1.7 1.7 0.00 0.00 0.00 28 1009.0
20260504183446 70 180 1.7 1.7 0.00 0.00 0.00 30 1009.1
20260504182944 70 193 0.0 0.9 0.00 0.00 0.00 29 1009.2
20260504182440 70 170 0.9 0.9 0.00 0.00 0.00 29 1009.3
20260504181938 70 178 1.7 1.7 0.00 0.00 0.00 29 1009.4
20260504181434 71 184 0.0 0.9 0.00 0.00 0.00 28 1009.3
20260504180933 72 196 0.9 0.9 0.00 0.00 0.00 27 1009.4
20260504180432 73 223 0.0 0.9 0.00 0.00 0.00 26 1009.2
20260504175930 73 161 0.0 0.9 0.00 0.00 0.00 26 1009.3
20260504175426 73 180 0.0 0.9 0.00 0.00 0.00 27 1009.1
20260504174924 74 203 0.9 1.7 0.00 0.00 0.00 26 1009.2
20260504174421 73 178 0.0 0.9 0.00 0.00 0.00 27 1009.2
20260504173919 73 206 1.7 1.7 0.00 0.00 0.00 26 1009.4
20260504173415 73 209 1.7 1.7 0.00 0.00 0.00 26 1009.5
20260504172913 73 221 0.9 1.7 0.00 0.00 0.00 26 1009.7
20260504172408 73 181 0.9 1.7 0.00 0.00 0.00 25 1009.5
20260504171905 73 216 1.7 2.6 0.00 0.00 0.00 25 1009.7
20260504171402 74 254 2.6 2.6 0.00 0.00 0.00 25 1009.5
20260504170859 74 240 2.6 2.6 0.00 0.00 0.00 25 1009.4
20260504170355 73 157 0.9 1.7 0.00 0.00 0.00 27 1009.7
20260504160314 68 177 0.0 0.0 0.00 0.00 0.00 33 1009.9
20260504150739 62 133 0.9 1.7 0.00 0.00 0.00 40 1010.1
20260504150236 60 149 0.9 0.9 0.00 0.00 0.00 41 1010.2
20260504141205 54 185 0.0 0.0 0.00 0.00 0.00 54 1010.6
20260504140702 54 169 0.0 0.0 0.00 0.00 0.00 54 1010.6
20260504140157 53 168 0.0 0.0 0.00 0.00 0.00 53 1010.6
20260504130626 44 177 0.0 0.0 0.00 0.00 0.00 66 1010.7
20260504130123 43 180 0.0 0.0 0.00 0.00 0.00 71 1010.6
20260504110514 40 204 0.0 0.0 0.00 0.00 0.00 71 1010.6